Location: Dunn (historical)
(35.2693°N, 90.5721°W)
Time: 12:34:42
(UTC+00:00)

Cosmos 1484 Rocket - Pass Details

Date: 13 February 2026
Orbit: 437 x 465 km, 97.6° (Epoch: 8 March)

Event Time Altitude Azimuth Distance (km) Brightness Sun altitude
Rises 12:10:38 0° 6° (N) 2,512 6.2 -8.8°
Reaches altitude 10° 12:12:43 10° 2° (N) 1,632 5.2 -8.4°
Maximum altitude 12:16:09 55° 284° (WNW) 571 2.6 -7.7°
Drops below altitude 10° 12:19:32 10° 206° (SSW) 1,616 5.1 -7.0°
Sets 12:21:36 0° 202° (SSW) 2,485 6.1 -6.6°
